Change the Weather History Date:

Saturday, May 21, 2011

  Actual Average Record
Temperature  
Mean Temperature 76 °F 64 °F  
Max Temperature 84 °F 76 °F 89 °F (2014)
Min Temperature 67 °F 53 °F 32 °F (2002)
Degree Days  
Heating Degree Days 0 4  
Month to date heating degree days 147 113  
Since 1 July heating degree days 5423 5476  
Cooling Degree Days 11 3  
Month to date cooling degree days 61 36  
Year to date cooling degree days 72 50  
Growing Degree Days 24 (Base 50)    
Moisture  
Dew Point 63 °F    
Average Humidity 64    
Maximum Humidity 81    
Minimum Humidity 47    
Precipitation  
Precipitation T in 0.14 in 0.25 in (2001)
Month to date precipitation 1.71 3.10  
Year to date precipitation 11.66 13.26  
Sea Level Pressure  
Sea Level Pressure 29.86 in    
Wind  
Wind Speed 10 mph (South)    
Max Wind Speed 18 mph    
Max Gust Speed 23 mph    
Visibility 10 miles    
Events      
T = Trace of Precipitation, MM = Missing Value Source: NWS Daily Summary

Daily Weather History Graph

Daily Weather History Graph

Search for Another Location

Airport or City:

Trip Planner

Search our weather history database for the weather conditions in past years. The results will help you decide how hot, cold, wet, or windy it might be!

Date:

Astronomy

May. 21, 2011 Rise Set
Actual Time 5:35 AM CDT 8:08 PM CDT
Civil Twilight 5:04 AM CDT 8:39 PM CDT
Nautical Twilight 4:26 AM CDT 9:18 PM CDT
Astronomical Twilight 3:42 AM CDT 10:02 PM CDT
Moon No Moon Rise 9:33 AM CDT (5/21)
Length of Visible Light 15h 35m
Length of Day
14h 32m
Waning Gibbous, 79% of the Moon is Illuminated
May 21
Waning Gibbous
May 24
Last Quarter
Jun 1
New
Jun 8
First Quarter
Jun 15
Full

Hourly Weather History & Observations

Time (CDT) Temp. Heat Index Dew Point Humidity Pressure Visibility Wind Dir Wind Speed Gust Speed Precip Events Conditions
12:54 AM 71.1 °F - 61.0 °F 70% 29.92 in 10.0 mi SE 5.8 mph - N/A   Mostly Cloudy
1:54 AM 69.1 °F - 61.0 °F 75% 29.93 in 10.0 mi SSE 6.9 mph - N/A   Mostly Cloudy
2:54 AM 70.0 °F - 61.0 °F 73% 29.92 in 10.0 mi SSE 8.1 mph - N/A   Overcast
3:54 AM 69.1 °F - 61.0 °F 75% 29.91 in 10.0 mi SSE 8.1 mph - N/A   Overcast
4:54 AM 68.0 °F - 61.0 °F 78% 29.90 in 10.0 mi SE 8.1 mph - N/A   Overcast
5:54 AM 66.9 °F - 61.0 °F 81% 29.89 in 9.0 mi SSE 9.2 mph - N/A   Mostly Cloudy
6:54 AM 66.9 °F - 61.0 °F 81% 29.86 in 8.0 mi SE 12.7 mph - N/A   Mostly Cloudy
7:54 AM 68.0 °F - 61.0 °F 78% 29.85 in 8.0 mi SE 9.2 mph - 0.00 in   Mostly Cloudy
8:54 AM 71.1 °F - 63.0 °F 75% 29.87 in 9.0 mi South 9.2 mph - N/A   Clear
9:54 AM 75.0 °F - 64.0 °F 69% 29.87 in 10.0 mi SSW 8.1 mph - N/A   Clear
10:54 AM 77.0 °F - 64.0 °F 64% 29.86 in 10.0 mi SSW 11.5 mph - N/A   Partly Cloudy
11:54 AM 75.9 °F - 64.0 °F 67% 29.87 in 10.0 mi SW 12.7 mph - N/A   Clear
12:54 PM 80.1 °F 81.5 °F 63.0 °F 56% 29.86 in 10.0 mi SSW 9.2 mph - N/A   Clear
1:54 PM 82.9 °F 83.3 °F 61.0 °F 47% 29.85 in 10.0 mi WSW 9.2 mph 16.1 mph N/A   Clear
2:54 PM 82.0 °F 83.1 °F 63.0 °F 52% 29.83 in 10.0 mi SSW 11.5 mph - N/A   Scattered Clouds
3:54 PM 82.0 °F 83.1 °F 63.0 °F 52% 29.82 in 10.0 mi South 9.2 mph - N/A   Clear
4:54 PM 80.1 °F 81.7 °F 64.0 °F 58% 29.83 in 10.0 mi South 15.0 mph - N/A   Clear
5:54 PM 80.1 °F 81.9 °F 64.9 °F 60% 29.82 in 10.0 mi South 15.0 mph - N/A   Partly Cloudy
6:54 PM 78.1 °F - 64.0 °F 62% 29.82 in 10.0 mi South 13.8 mph - N/A   Clear
7:54 PM 75.0 °F - 63.0 °F 66% 29.83 in 10.0 mi South 10.4 mph - N/A   Clear
8:54 PM 73.0 °F - 63.0 °F 71% 29.83 in 10.0 mi South 8.1 mph - N/A   Clear
9:54 PM 72.0 °F - 63.0 °F 73% 29.83 in 10.0 mi SSE 9.2 mph - N/A   Clear
10:54 PM 70.0 °F - 63.0 °F 78% 29.80 in 10.0 mi SSE 9.2 mph - N/A   Clear
11:54 PM 70.0 °F - 63.0 °F 78% 29.84 in 10.0 mi SSW 12.7 mph - N/A   Clear